Location: Black Swamp Observatory
(41.3920°N, 84.1250°W)
Time: 03:04:56
(UTC-04:00)

Transit 4A - Pass Details

Date: 31 January 2022
Orbit: 863 x 981 km, 66.8° (Epoch: 27 May)

Event Time Altitude Azimuth Distance (km) Brightness Sun altitude
Rises 06:10:02 0° 200° (SSW) 3,484 10.8 -18.7°
Reaches altitude 10° 06:12:30 10° 198° (SSW) 2,564 10.1 -18.3°
Maximum altitude 06:18:24 69° 116° (ESE) 982 8.2 -17.2°
Drops below altitude 10° 06:24:33 10° 34° (NE) 2,663 10.6 -16.0°
Sets 06:27:08 0° 33° (NNE) 3,628 11.3 -15.5°
